Weather in Lyakova

Russia / Novgorod Oblast     58°17′31″N   32°37′03″E
temp.,
°C
wind,
m/s
gust,
m/s
humid.,
%
clouds,
%
prec.,
mm/h
press.,
hPa
HPBL,
m
1 august, sun
sun100:00+14ssw29976 0.2 1005219
03:00+14ssw269863 0.2 1006125
06:00+14sse2796100 0.0 1006175
09:00+19s387385 0.0 1005396
12:00+17s41095100 2.5 1005506
15:00+23ssw486620 3.2 10041529
18:00+23ssw49610 0.4 1003670
21:00+18sw2479100 0.4 100569
2 august, mon
mon200:00+18sw2273100 0.0 100642
03:00+15ssw2286100 0.0 100723
06:00+16sse1183100 0.0 100626
09:00+16sw0184100 0.0 100740
12:00+16ese2696100 0.9 1006254
15:00+16e3797100 3.7 1003428
18:00+16ne2599100 14.4 1000265
21:00+15wnw3699100 14.9 1000431
3 august, tue
tue300:00+15w3799100 0.1 1001412
03:00+14w2899100 0.1 1002323
06:00+14sw289993 0.0 1002316
09:00+16wsw478878 0.0 1003676
12:00+20w575359 0.2 10051601
15:00+22w584679 0.4 10052229
18:00+20w48580 0.0 10071529
21:00+15wnw38776 0.1 1009256
4 august, wed
wed400:00+11wnw22801 0.0 101118
03:00+9wnw11824 0.0 101310
06:00+10ssw11845 0.0 101426
09:00+17wsw23605 0.0 1015646
12:00+20w334352 0.0 10162181
15:00+21wnw443720 0.0 10162338
18:00+20wnw24446 0.0 10161458
21:00+14sse11628 0.0 101710
5 august, thu
thu500:00+12se22705 0.0 101826
03:00+13se2468100 0.0 101888
06:00+13sse1369100 0.0 101774
09:00+17se1356100 0.0 1017318
12:00+21ese2346100 0.0 1016803
15:00+23se3441100 0.0 10152211
18:00+18sse257467 0.2 1015223
21:00+15se2689100 0.4 1014131